Location: Bühlhof
(48.7849°N, 8.6361°E)
Time: 22:16:57
(UTC+00:00)

Cosmos 332 Rocket - Pass Details

Date: 19 January 2026
Orbit: 673 x 693 km, 74.0° (Epoch: 7 February)

Event Time Altitude Azimuth Distance (km) Brightness Sun altitude
Rises 16:38:50 0° 335° (NNW) 3,044 7.1 -6.1°
Reaches altitude 10° 16:41:08 10° 333° (NNW) 2,128 6.4 -6.5°
Maximum altitude 16:45:54 72° 250° (WSW) 721 4.1 -7.2°
Drops below altitude 10° 16:50:40 10° 167° (SSE) 2,125 6.4 -7.9°
Sets 16:52:58 0° 165° (SSE) 3,040 7.2 -8.3°
